SCP
0 0 0 1 1 0 0 0 0 0 0 0 0 0 0 0 0 0 0 0 0 0 0 0 0 0 0 0 0 0 0 0 0 0 0 0 0 0 0 0 0 0 0
0 0 0 0 1 0 0 0 0 0 0 0 0 0 0 0 0 0 0 0 0 0 0 0 0 0 0 0 0 0 0 0 0 0 0 0 0 0 0 0 0 0 1
0 0 1 1 1 1 0 0 0 0 0 0 0 0 0 0 0 0 0 0 0 0 0 0 0 0 0 0 0 0 0 0 0 0 0 0 0 0 0 0 0 0 1
0 0 1 1 1 1 0 0 0 0 0 0 0 0 0 0 0 0 0 0 0 0 0 0 0 0 0 0 0 0 0 0 0 0 0 0 0 0 0 0 0 0 0
0 1 1 1 1 1 1 0 0 0 0 0 0 0 0 0 0 0 0 0 0 0 0 0 0 0 0 0 0 0 0 0 0 0 0 0 0 0 0 0 0 0 0
0 1 1 1 1 1 1 0 0 0 0 0 0 0 0 0 0 0 0 0 0 0 0 0 0 0 0 0 0 0 0 0 0 0 0 0 0 0 0 0 0 0 0
1 1 1 1 1 1 0 0 0 0 0 0 0 0 0 0 0 0 0 0 0 0 0 0 0 0 0 0 0 0 0 0 0 0 0 0 0 0 0 0 0 0 0
1 1 1 1 1 0 0 0 0 0 0 0 0 0 0 0 0 0 0 0 0 0 0 0 0 0 0 0 0 0 0 0 0 0 0 0 0 0 0 0 0 0 0
0 1 1 1 0 0 0 0 0 0 0 0 0 0 0 0 0 0 0 0 0 0 0 0 0 0 0 0 0 0 0 0 0 0 0 0 0 0 0 0 0 0 0
0 0 1 1 0 0 0 0 0 0 0 0 0 0 0 0 0 0 0 0 0 0 0 0 0 0 0 0 0 0 0 0 0 0 0 0 0 0 0 0 0 0 0
0 0 0 0 0 0 0 0 0 0 0 0 0 0 0 0 0 0 0 0 0 0 0 0 0 0 0 0 0 0 0 0 0 0 0 0 0 0 0 0 0 0 0
0 0 0 0 0 1 1 1 1 0 0 0 0 0 0 0 0 0 0 0 0 0 0 0 0 0 0 0 0 0 0 0 0 0 0 0 0 0 0 0 0 0 0
0 0 0 0 0 1 1 1 1 0 0 0 0 0 0 0 0 0 0 0 0 0 0 0 0 0 0 0 0 0 0 0 0 0 0 0 0 0 0 0 0 0 0
0 0 0 0 0 1 1 1 1 0 0 0 0 0 0 0 0 0 0 0 0 0 0 0 0 0 0 0 0 0 0 0 0 0 0 0 0 0 0 0 0 0 0
0 0 0 0 0 0 1 0 0 0 0 0 0 0 0 0 0 0 0 0 0 0 0 0 0 0 0 0 0 0 0 0 0 0 0 0 0 0 0 0 0 0 0
0 0 0 0 0 0 0 0 0 0 0 0 0 0 0 0 0 0 0 0 0 0 0 0 0 0 0 0 0 0 0 0 0 0 0 0 0 0 0 0 0 0 0
0 0 0 0 0 0 0 0 0 0 0 0 0 0 0 0 0 0 0 0 0 0 0 0 0 0 0 0 0 0 0 0 0 0 0 0 0 0 0 0 0 0 0
0 0 0 0 0 0 0 0 0 0 0 0 0 0 0 0 0 0 0 0 0 0 0 0 0 0 0 0 0 0 0 0 0 0 0 0 0 0 0 0 0 0 0
0 0 0 0 0 0 0 0 0 0 0 0 0 0 0 0 0 0 0 0 0 0 0 0 0 0 0 0 0 0 0 0 0 0 0 0 0 0 0 0 0 0 0
0 0 0 0 0 0 0 0 0 0 0 0 0 0 0 0 0 0 0 0 0 0 0 0 0 0 0 0 0 0 0 0 0 0 0 0 0 0 0 0 0 0 0
0 0 0 0 0 0 0 0 0 0 0 0 0 0 0 0 0 0 0 0 0 0 0 0 0 0 0 0 0 0 0 0 0 0 0 0 0 0 0 0 0 0 0
0 0 0 0 0 0 0 0 0 0 0 0 0 0 0 0 0 0 0 0 0 0 0 0 0 0 0 0 0 0 0 0 0 0 0 0 0 0 0 0 0 0 0
0 0 0 0 0 0 0 0 0 0 0 0 0 0 0 0 0 0 0 0 0 0 0 0 0 0 0 0 0 0 0 0 0 0 0 0 0 0 0 0 0 0 0
0 0 0 0 0 0 0 0 0 0 0 0 0 0 0 0 0 0 0 0 0 0 0 0 0 0 0 0 0 0 0 0 0 0 0 0 0 0 0 0 0 0 0
0 0 0 0 0 0 0 0 0 0 0 0 0 0 0 0 0 0 0 0 0 0 0 0 0 0 0 0 0 0 0 0 0 0 0 0 0 0 0 0 0 0 0
0 0 0 0 0 0 0 0 0 0 0 0 0 0 0 0 0 0 0 0 0 0 0 0 0 0 0 0 0 0 0 0 0 0 0 0 0 0 0 0 0 0 0
Wind_Speed
2 4 5 5 5 4 4 4 4 3 2 2 2 1 1 1 1 1 1 0 0 1 1 1 2 2 2 2 3 2 3 3 2 2 4 4 3 2 2 1 1 1 2
3 3 4 4 4 4 3 3 3 3 2 1 1 1 1 1 1 1 1 1 1 1 0 0 1 1 1 3 3 2 2 2 2 1 2 4 5 4 3 2 1 1 1
4 3 3 3 3 3 3 3 3 3 2 2 2 2 3 2 2 2 2 2 2 2 2 1 1 1 1 1 2 1 0 1 2 1 1 1 2 4 4 3 2 2 1
3 3 3 3 3 2 2 3 3 2 2 2 2 2 1 0 2 2 2 3 3 2 2 2 2 2 1 2 2 1 1 0 1 2 0 2 2 1 3 4 3 2 1
4 3 2 2 2 2 3 3 3 3 2 2 2 2 1 1 1 1 2 3 3 3 3 2 2 2 2 2 2 2 1 1 1 1 1 1 1 1 1 3 4 3 2
4 4 3 3 3 3 3 3 4 2 1 1 1 1 0 1 1 2 2 3 3 3 3 3 2 2 2 3 2 2 2 2 2 1 1 1 1 1 1 2 2 2 3
4 4 4 3 3 3 3 2 3 2 1 1 1 1 1 1 1 2 2 2 2 3 4 3 3 3 3 3 2 2 2 2 2 2 2 2 3 2 2 2 2 2 2
4 4 4 3 3 2 2 2 2 1 1 1 2 2 1 0 1 1 1 2 2 3 3 3 3 4 4 3 2 2 3 2 3 3 3 2 3 3 3 3 2 1 2
4 4 3 3 2 1 1 1 1 1 1 2 2 2 2 1 1 2 1 1 2 2 3 3 3 4 4 4 3 2 3 2 3 3 3 3 3 2 3 3 3 3 1
4 4 3 2 1 1 1 1 1 1 1 2 2 2 2 2 2 2 3 3 3 3 3 4 4 4 4 4 3 3 3 3 3 2 3 3 2 2 2 3 3 3 4
5 4 3 2 2 2 2 2 2 2 2 2 2 2 2 2 2 3 3 3 3 4 4 4 4 4 4 4 3 3 3 3 3 3 3 4 3 2 2 2 2 3 3
5 4 3 2 2 2 1 2 2 2 1 1 2 2 2 3 3 4 4 4 4 4 4 4 4 4 4 4 3 4 3 3 3 4 3 4 3 3 3 2 3 3 4
5 3 2 2 2 1 1 1 1 1 1 2 2 3 3 3 3 4 4 4 4 4 4 4 4 4 5 4 4 4 4 3 3 3 3 4 3 3 3 3 3 3 3
5 4 3 2 1 1 1 1 0 0 1 2 3 3 3 3 3 4 4 4 4 4 5 4 4 4 5 4 4 4 4 4 4 3 3 3 3 4 4 3 4 3 3
5 5 4 2 2 1 1 1 0 1 1 2 2 2 2 3 3 4 4 4 5 5 5 4 5 5 4 5 5 4 4 4 4 4 4 4 5 6 4 3 3 3 3
6 5 4 3 2 2 1 1 1 1 2 2 1 2 3 3 4 4 4 5 5 5 5 5 5 5 6 10 9 6 3 4 4 4 4 5 5 6 6 7 6 6 5
7 6 5 4 3 3 2 2 1 1 2 1 1 2 3 3 4 5 5 5 5 5 5 5 5 5 7 11 12 9 4 3 4 4 4 4 4 4 4 5 6 6 8
8 6 5 4 3 2 2 2 1 2 1 1 2 2 2 3 4 4 5 5 4 4 4 5 5 5 8 13 12 10 4 3 5 4 4 4 3 3 3 3 3 4 5
7 6 5 4 3 3 2 2 1 1 1 1 2 3 2 3 3 4 4 4 4 5 4 4 5 5 8 12 13 11 3 3 5 5 4 4 4 6 5 2 3 4 5
6 6 4 4 3 2 2 3 1 0 1 3 3 3 2 2 3 4 4 3 3 4 5 5 5 5 6 11 13 12 3 3 4 4 4 6 6 7 6 3 3 5 5
6 6 5 4 3 2 3 2 1 3 4 3 2 3 3 3 3 2 3 3 4 5 5 5 5 5 6 9 12 12 4 3 4 4 4 5 9 9 8 6 4 7 6
6 6 5 3 3 3 3 2 3 4 3 2 2 3 3 3 3 2 3 3 3 4 5 4 5 5 5 7 9 12 9 7 4 4 4 6 11 11 10 7 8 9 6
6 5 5 4 2 2 3 3 4 3 2 1 2 3 3 3 3 3 3 3 3 3 4 4 5 5 5 6 11 12 11 10 5 5 8 11 12 11 8 9 9 7 3
5 4 5 4 3 3 3 4 4 3 2 2 3 3 3 4 4 3 3 3 3 4 4 5 5 5 5 5 5 5 5 6 6 5 7 9 9 7 7 7 5 3 4
4 4 5 4 4 3 3 4 3 3 2 3 3 3 3 3 4 4 3 4 4 5 6 5 5 5 6 8 11 7 5 4 5 6 3 3 4 4 4 4 3 3 3
4 4 4 4 4 3 3 4 3 3 3 3 3 3 3 3 3 4 5 6 7 11 12 11 10 8 10 13 13 13 12 11 10 6 3 4 4 5 5 5 4 4 4
Wind_Direction
139 119 118 125 123 122 123 127 123 122 111 92 90 75 24 330 337 296 272 289 312 32 54 16 358 7 360 330 336 340 346 335 341 4 343 333 337 339 317 308 281 251 235
100 104 111 111 124 129 132 141 145 142 139 123 137 153 166 265 277 307 314 284 264 282 262 309 325 347 348 340 342 353 353 333 3 44 17 348 342 341 341 339 319 281 247
140 138 118 110 109 115 135 149 160 149 144 111 81 54 41 19 6 347 322 299 281 276 271 265 274 301 297 297 303 311 14 325 330 54 126 96 293 314 325 337 341 330 321
124 123 115 111 117 120 111 116 128 131 128 115 104 106 100 305 266 280 294 302 298 289 274 267 267 279 275 283 291 289 225 180 315 323 275 203 200 241 319 325 334 332 330
126 121 118 131 112 100 101 97 96 93 98 114 130 124 128 240 291 315 324 320 317 305 291 276 275 280 270 268 281 298 275 210 219 251 276 294 288 212 199 302 322 333 319
121 111 93 84 66 61 73 79 87 78 70 94 114 125 179 293 333 331 326 320 318 313 304 289 279 273 267 264 262 261 263 250 240 237 215 196 209 227 198 243 286 301 298
123 110 99 86 72 65 63 70 80 61 21 30 11 339 271 255 265 285 296 305 313 309 303 295 281 276 270 269 262 254 263 255 249 245 234 215 216 205 190 201 254 284 297
129 126 128 126 117 109 88 84 84 51 8 8 348 353 11 1 287 280 283 275 273 278 291 292 292 289 286 282 270 256 256 250 252 256 247 238 235 209 194 190 184 276 313
134 130 121 118 122 118 101 108 102 43 1 359 6 13 15 15 327 315 322 299 294 301 302 305 310 305 301 293 280 265 263 258 254 257 255 247 247 229 213 198 183 173 217
136 131 129 132 123 110 83 68 74 61 20 17 20 30 8 354 344 349 338 326 313 314 320 321 319 317 314 311 294 279 275 272 270 257 256 256 250 248 233 212 200 183 182
148 144 143 139 120 83 69 63 53 45 32 28 24 20 3 1 4 360 343 332 326 322 317 316 318 315 314 312 316 297 288 282 283 283 265 263 252 243 244 225 202 197 180
149 143 135 118 100 87 69 63 64 62 36 40 42 24 9 9 6 348 338 343 339 330 322 323 322 315 314 312 311 306 295 283 282 282 280 277 269 251 242 227 221 210 196
139 129 119 114 113 116 103 88 77 76 41 51 44 24 10 2 352 339 337 343 341 337 337 339 331 322 316 312 304 301 287 273 272 274 273 275 267 261 253 237 234 228 215
151 145 140 140 139 133 132 106 38 68 66 60 48 25 359 351 339 339 338 336 337 338 335 334 330 324 318 315 314 300 302 291 282 276 270 270 255 250 252 245 235 228 219
160 161 158 156 149 135 95 74 51 41 70 66 40 3 348 351 346 341 335 334 337 338 327 329 331 327 322 331 332 319 315 305 294 293 287 276 270 260 251 250 234 218 217
168 165 162 159 163 166 162 101 44 30 83 73 19 349 354 351 343 332 333 335 333 330 330 328 325 327 330 333 333 333 318 312 303 297 300 297 287 287 276 265 249 223 213
169 167 168 172 179 182 167 158 165 79 73 55 4 350 348 343 332 334 341 332 326 328 325 320 323 318 313 327 332 326 323 306 296 286 288 300 309 309 302 296 290 266 243
169 170 169 170 178 173 162 146 103 78 63 20 339 330 335 330 331 338 333 323 320 322 313 312 315 314 320 332 334 328 323 316 301 285 273 269 279 293 296 303 309 298 284
165 166 168 165 162 166 162 127 95 74 50 315 304 298 304 318 329 329 320 315 321 320 311 310 314 315 315 330 336 336 319 309 304 300 295 276 266 281 287 277 284 295 297
154 155 155 146 149 177 153 128 151 182 262 267 275 284 289 301 305 302 302 308 314 312 312 316 313 309 309 325 337 339 317 302 302 306 302 291 287 290 292 265 249 266 280
156 153 148 150 171 174 141 147 196 239 250 261 278 299 296 290 285 295 300 309 315 321 316 312 310 309 307 318 332 335 325 297 300 301 298 293 299 297 291 277 249 252 268
157 154 151 166 186 170 150 177 232 247 253 264 288 297 296 295 312 306 304 310 314 321 313 308 310 306 305 310 319 326 324 319 295 287 290 291 298 296 291 279 270 271 276
161 160 159 171 199 193 171 198 239 245 245 262 282 290 296 298 296 291 296 306 311 309 309 301 301 305 306 307 316 319 316 314 303 283 289 299 300 297 288 275 275 275 257
165 161 158 171 211 226 216 220 233 228 217 244 271 283 288 296 299 293 284 287 296 297 302 300 294 296 299 299 303 303 306 304 304 295 296 303 300 288 280 283 274 255 237
172 167 171 188 215 225 236 246 238 211 218 243 265 276 273 277 287 284 271 271 265 265 281 282 275 284 292 288 294 300 297 294 289 301 300 302 300 294 288 282 272 262 253
171 173 184 199 217 221 237 253 243 212 210 242 262 264 266 272 277 286 299 287 279 290 289 289 286 279 276 289 297 299 298 297 299 305 292 290 286 283 279 275 275 266 253